WB5OMR-9 Weather Reports


time (UTC)temp
C
wind
direction
speed
KPH
gust
KPH
rain 1hr
cm
rain 24hr
cm
rain mn
cm
humidity
%
barometer
mb
20260903220319 42 112 0.0 0.0 0.00 0.00 0.00 29 1009.8
20260903215317 42 112 0.0 0.0 0.00 0.00 0.00 30 1009.8
20260903214316 42 112 0.0 0.0 0.00 0.00 0.00 30 1009.8
20260903213314 41 180 0.0 0.0 0.00 0.00 0.00 31 1009.8
20260903212314 42 157 0.0 0.0 0.00 0.00 0.00 31 1009.8
20260903211313 42 247 0.0 0.0 0.00 0.00 0.00 31 1010.2
20260903210311 42 157 0.0 0.0 0.00 0.00 0.00 31 1010.2
20260903205310 43 180 0.0 0.0 0.00 0.00 0.00 31 1010.2
20260903204309 42 135 0.0 0.0 0.00 0.00 0.00 33 1010.2
20260903203308 41 90 0.0 0.0 0.00 0.00 0.00 34 1010.5
20260903202307 41 135 0.0 0.0 0.00 0.00 0.00 34 1010.8
20260903201306 42 202 0.0 0.0 0.00 0.00 0.00 34 1010.8
20260903200305 41 135 0.0 0.0 0.00 0.00 0.00 34 1010.8
20260903195306 41 180 0.0 0.0 0.00 0.00 0.00 34 1010.8
20260903194303 42 157 0.0 0.0 0.00 0.00 0.00 34 1011.2
20260903193303 41 180 0.0 0.0 0.00 0.00 0.00 35 1011.2
20260903192219 41 202 0.0 0.0 0.00 0.00 0.00 35 1011.5
20260903191136 41 180 0.0 0.0 0.00 0.00 0.00 36 1011.9
20260903190135 41 247 0.0 0.0 0.00 0.00 0.00 36 1012.2
20260903185052 40 225 0.0 0.0 0.00 0.00 0.00 38 1012.2
20260903184051 40 247 0.0 0.0 0.00 0.00 0.00 39 1012.5
20260903183050 41 157 0.0 0.0 0.00 0.00 0.00 38 1012.5
20260903182048 40 270 0.0 0.0 0.00 0.00 0.00 39 1012.9
20260903181047 40 157 0.0 0.0 0.00 0.00 0.00 42 1013.2
20260903180046 39 135 0.0 0.0 0.00 0.00 0.00 43 1013.2
20260903175044 39 247 0.0 0.0 0.00 0.00 0.00 44 1013.2
20260903174043 38 225 0.0 0.0 0.00 0.00 0.00 46 1013.9
20260903173042 38 90 0.0 0.0 0.00 0.00 0.00 46 1013.9
20260903172041 38 202 0.0 0.0 0.00 0.00 0.00 47 1013.2
20260903171040 37 247 0.0 0.0 0.00 0.00 0.00 49 1012.9
20260903170039 37 157 0.0 0.0 0.00 0.00 0.00 50 1013.2
20260903165039 36 247 0.0 0.0 0.00 0.00 0.00 53 1013.5
20260903163956 36 247 0.0 0.0 0.00 0.00 0.00 55 1013.5
20260903162954 35 247 0.0 0.0 0.00 0.00 0.00 55 1013.9
20260903161953 35 247 0.0 0.0 0.00 0.00 0.00 58 1013.9
20260903160953 34 247 0.0 0.0 0.00 0.00 0.00 59 1013.5
20260903155952 33 247 0.0 0.0 0.00 0.00 0.00 61 1013.5
20260903154950 32 247 0.0 0.0 0.00 0.00 0.00 63 1013.5
20260903153907 32 135 0.0 0.0 0.00 0.00 0.00 67 1013.9
20260903152906 31 180 0.0 0.0 0.00 0.00 0.00 68 1013.9
20260903151905 31 157 0.0 0.0 0.00 0.00 0.00 70 1013.9
20260903150904 30 157 0.0 0.0 0.00 0.00 0.00 71 1013.9
20260903145903 30 135 0.0 0.0 0.00 0.00 0.00 73 1013.9
20260903144902 29 180 0.0 0.0 0.00 0.00 0.00 75 1013.9
20260903143901 29 180 0.0 0.0 0.00 0.00 0.00 75 1013.9
20260903142900 28 157 0.0 0.0 0.00 0.00 0.00 77 1013.9
20260903141859 28 180 0.0 0.0 0.00 0.00 0.00 77 1013.9
20260903140859 28 135 0.0 0.0 0.00 0.00 0.00 79 1014.2
20260903135857 28 135 0.0 0.0 0.00 0.00 0.00 80 1013.9
20260903134857 27 157 0.0 0.0 0.00 0.00 0.00 80 1014.2
20260903133856 27 135 0.0 0.0 0.00 0.00 0.00 81 1014.2
20260903132855 27 112 0.0 0.0 0.00 0.00 0.00 82 1014.2
20260903131854 27 157 0.0 0.0 0.00 0.00 0.00 82 1014.2
20260903130853 26 112 0.0 0.0 0.00 0.00 0.00 82 1014.2
20260903125852 26 112 0.0 0.0 0.00 0.00 0.00 82 1013.9
20260903124850 26 90 0.0 0.0 0.00 0.00 0.00 82 1013.9
20260903123849 26 112 0.0 0.0 0.00 0.00 0.00 82 1013.5
20260903122805 26 112 0.0 0.0 0.00 0.00 0.00 83 1013.5
20260903121804 26 135 0.0 0.0 0.00 0.00 0.00 83 1013.5
20260903120803 26 157 0.0 0.0 0.00 0.00 0.00 83 1013.5
20260903115802 26 135 0.0 0.0 0.00 0.00 0.00 82 1013.5
20260903114801 26 135 0.0 0.0 0.00 0.00 0.00 82 1013.2
20260903113800 26 135 0.0 0.0 0.00 0.00 0.00 82 1013.2
20260903112759 26 157 0.0 0.0 0.00 0.00 0.00 82 1013.5
20260903111758 26 135 0.0 0.0 0.00 0.00 0.00 82 1013.5
20260903110756 27 157 0.0 0.0 0.00 0.00 0.00 81 1013.5
20260903105756 27 135 0.0 0.0 0.00 0.00 0.00 81 1013.2
20260903104754 27 157 0.0 0.0 0.00 0.00 0.00 81 1013.5
20260903103753 27 135 0.0 0.0 0.00 0.00 0.00 81 1013.5
20260903102752 27 157 0.0 0.0 0.00 0.00 0.00 81 1013.2
20260903101750 27 180 0.0 0.0 0.00 0.00 0.00 81 1013.2
20260903100707 27 135 0.0 0.0 0.00 0.00 0.00 81 1013.2
20260903095624 27 157 0.0 0.0 0.00 0.00 0.00 80 1013.2
20260903094540 27 180 0.0 0.0 0.00 0.00 0.00 80 1013.2
20260903093539 27 135 0.0 0.0 0.00 0.00 0.00 80 1013.2
20260903092538 27 135 0.0 0.0 0.00 0.00 0.00 80 1013.2
20260903091537 27 135 0.0 0.0 0.00 0.00 0.00 80 1013.2
20260903090536 27 157 0.0 0.0 0.00 0.00 0.00 79 1013.2
20260903085535 27 112 0.0 0.0 0.00 0.00 0.00 79 1013.2
20260903084452 27 157 0.0 0.0 0.00 0.00 0.00 78 1013.2
20260903083409 27 157 0.0 0.0 0.00 0.00 0.00 78 1013.2
20260903082325 27 157 0.0 0.0 0.00 0.00 0.00 78 1013.2
20260903081324 27 157 0.0 0.0 0.00 0.00 0.00 76 1013.5
20260903080323 27 157 0.0 0.0 0.00 0.00 0.00 75 1013.5
20260903075322 27 135 0.0 0.0 0.00 0.00 0.00 74 1013.2
20260903074320 27 157 0.0 0.0 0.00 0.00 0.00 75 1013.2
20260903073318 28 135 0.0 0.0 0.00 0.00 0.00 73 1013.2
20260903072318 28 112 0.0 0.0 0.00 0.00 0.00 72 1013.2
20260903071317 28 157 0.0 0.0 0.00 0.00 0.00 72 1013.2
20260903070316 28 157 0.0 0.0 0.00 0.00 0.00 70 1013.2
20260903065315 28 135 0.0 0.0 0.00 0.00 0.00 69 1013.2
20260903064313 28 135 0.0 0.0 0.00 0.00 0.00 69 1013.2
20260903063312 28 157 0.0 0.0 0.00 0.00 0.00 68 1013.2
20260903062311 28 135 0.0 0.0 0.00 0.00 0.00 68 1013.5
20260903061310 29 157 0.0 0.0 0.00 0.00 0.00 67 1013.5
20260903060309 29 157 0.0 0.0 0.00 0.00 0.00 67 1013.5
20260903055307 30 157 0.0 0.0 0.00 0.00 0.00 66 1013.5
20260903054306 30 157 0.0 0.0 0.00 0.00 0.00 66 1013.5
20260903053305 30 135 0.0 0.0 0.00 0.00 0.00 65 1013.5
20260903052307 30 157 0.0 0.0 0.00 0.00 0.00 64 1013.5
20260903051303 30 90 0.0 0.0 0.00 0.00 0.00 63 1013.2
20260903050302 30 157 0.0 0.0 0.00 0.00 0.00 63 1013.2
20260903045300 31 157 0.0 0.0 0.00 0.00 0.00 62 1012.9
20260903044259 31 157 0.0 0.0 0.00 0.00 0.00 61 1012.9
20260903043258 31 157 0.0 0.0 0.00 0.00 0.00 59 1012.5
20260903042256 31 157 0.0 0.0 0.00 0.00 0.00 58 1012.5
20260903041255 31 112 0.0 0.0 0.00 0.00 0.00 57 1012.9
20260903040212 32 157 0.0 0.0 0.00 0.00 0.00 56 1013.2
20260903035129 32 135 0.0 0.0 0.00 0.00 0.00 55 1013.2
20260903034128 32 135 0.0 0.0 0.00 0.00 0.00 54 1013.2
20260903033044 32 135 0.0 0.0 0.00 0.00 0.00 50 1013.5
20260903032042 32 157 0.0 0.0 0.00 0.00 0.00 48 1012.9
20260903031041 32 112 0.0 0.0 0.00 0.00 0.00 46 1012.5
20260903030040 32 157 0.0 0.0 0.00 0.00 0.00 42 1012.5
20260903025038 32 135 0.0 0.0 0.00 0.00 0.00 41 1011.9
20260903024038 33 112 0.0 0.0 0.00 0.00 0.00 41 1011.9
20260903023036 33 112 0.0 0.0 0.00 0.00 0.00 41 1011.9
20260903022035 33 135 0.0 0.0 0.00 0.00 0.00 41 1011.5
20260903020952 33 135 0.0 0.0 0.00 0.00 0.00 39 1011.5
20260903015909 34 135 0.0 0.0 0.00 0.00 0.00 39 1011.5
20260903014908 35 135 0.0 0.0 0.00 0.00 0.00 38 1011.5
20260903013825 35 135 0.0 0.0 0.00 0.00 0.00 37 1011.2
20260903012742 35 135 0.0 0.0 0.00 0.00 0.00 37 1011.2
20260903011740 36 135 0.0 0.0 0.00 0.00 0.00 36 1011.2
20260903010739 36 112 0.0 0.0 0.00 0.00 0.00 36 1010.8
20260903005739 36 112 0.0 0.0 0.00 0.00 0.00 34 1011.2
20260903004737 37 135 0.0 0.0 0.00 0.00 0.00 35 1010.8
20260903003736 37 135 0.0 0.0 0.00 0.00 0.00 33 1011.2
20260903002735 38 157 0.0 0.0 0.00 0.00 0.00 33 1011.2
20260903001734 38 157 0.0 0.0 0.00 0.00 0.00 33 1011.2
20260903000733 38 112 0.0 0.0 0.00 0.00 0.00 32 1011.2
20260902235732 39 157 0.0 0.0 0.00 0.00 0.00 32 1011.2
20260902234731 39 157 0.0 0.0 0.00 0.00 0.00 31 1011.2
20260902233730 40 67 0.0 0.0 0.00 0.00 0.00 31 1011.2
20260902232729 40 247 0.0 0.0 0.00 0.00 0.00 30 1011.5
20260902231727 41 247 0.0 0.0 0.00 0.00 0.00 30 1011.2
20260902230727 41 112 0.0 0.0 0.00 0.00 0.00 30 1011.5
20260902225725 41 247 0.0 0.0 0.00 0.00 0.00 30 1011.5
20260902224724 41 247 0.0 0.0 0.00 0.00 0.00 29 1011.5
20260902223723 42 157 0.0 0.0 0.00 0.00 0.00 28 1011.5
20260902222639 42 247 0.0 0.0 0.00 0.00 0.00 28 1011.5
20260902221555 41 135 0.0 0.0 0.00 0.00 0.00 27 1011.5